Content
SEND FEEDBACK

Daily
Averages
Monthly
Summary
United States of America

NAPERVILLE, ILLINOIS


Home > North America > United States > Illinois
Elevation: 687 feet     Latitude: 41 49N     Longitude: 088 04W

WEATHER
 
SELECT A DAY
Number of Records: 196,409;   Date Range: 1/1/95 - 7/7/14
 
SHARE

PRINT THIS DATA

[ ← Previous Day ]
WEATHER ALMANAC - DECEMBER 31, 2013
[ Next Day → ]
[ °C ]   °F
Weather ElementAverageHighLow
Temperature9.3 °F12 °F (1:51 pm)1.9 °F (6:51 am)
Dewpoint1.7 °F6.1 °F (5:51 pm)-5.1 °F (5:51 am)
Humidity71.3 %77 % (4:51 pm)61 % (10:51 am)
Barometer30.30 in30.37 in (9:51 am)30.20 in (1:51 am)
Wind Speed8.1 mph12.7 mph (8:51 am)
Weather ElementAverage
Visibility5.1 mi
Wind DirectionSSW (210 °)

Weather ElementTotal
Precipitation0.46 in
Heating Degree Days58.1 (Base 65)
Averaged from 36 records on December 31, 2013
WEATHER CONDITIONS BREAKOUT
WIND DIRECTION BREAKOUT
WEATHER BY HOUR - DECEMBER 31, 2013
[ °C ]   °F
Local TimeTemperatureDewpointHumidityBarometerVisibilityWind DirectionWind SpeedGust SpeedPrecipitationEventsConditions
12:51 AM8.1 °F-0.9 °F67 %30.21 in9.0 miWest (280°)9.2 mph0.00 inSnowLight Snow
1:51 AM7.0 °F-0.9 °F70 %30.20 in10.0 miWNW (300°)11.5 mph0.00 inMostly Cloudy
2:51 AM6.1 °F-2.0 °F69 %30.22 in10.0 miWNW (290°)10.4 mphPartly Cloudy
3:51 AM5.0 °F-2.9 °F70 %30.22 in10.0 miWest (280°)8.1 mphClear
4:51 AM3.0 °F-4.0 °F73 %30.23 in10.0 miWNW (290°)6.9 mphClear
5:51 AM3.0 °F-5.1 °F69 %30.26 in10.0 miWest (280°)9.2 mphClear
6:51 AM1.9 °F-5.1 °F72 %30.28 in10.0 miWNW (290°)9.2 mphClear
7:51 AM3.0 °F-5.1 °F69 %30.29 in10.0 miWNW (290°)10.4 mphPartly Cloudy
8:51 AM3.9 °F-4.0 °F70 %30.35 in10.0 miWSW (250°)12.7 mphPartly Cloudy
9:51 AM7.0 °F-2.9 °F64 %30.37 in10.0 miWest (270°)11.5 mphPartly Cloudy
10:51 AM9.0 °F-2.0 °F61 %30.35 in10.0 miWest (260°)11.5 mphScattered Clouds
11:51 AM10.0 °F0.0 °F64 %30.33 in10.0 miWSW (250°)11.5 mphOvercast
12:51 PM10.9 °F0.0 °F61 %30.32 in10.0 miWest (260°)9.2 mphOvercast
1:51 PM12.0 °F1.0 °F61 %30.31 in10.0 miWest (260°)9.2 mph0.00 inSnowLight Snow
2:22 PM10.9 °F1.9 °F67 %30.28 in2.5 miWest (260°)9.2 mph0.00 inSnowLight Snow
2:34 PM10.9 °F3.0 °F70 %30.28 in1.2 miWSW (250°)9.2 mph0.01 inSnowLight Snow
2:37 PM10.9 °F3.0 °F70 %30.27 in1.0 miWSW (250°)9.2 mph0.01 inSnowLight Snow
2:51 PM10.9 °F3.0 °F70 %30.31 in1.0 miWSW (250°)5.8 mph0.01 inSnowLight Snow
3:10 PM10.9 °F3.9 °F73 %30.27 in1.0 miWest (260°)5.8 mph0.01 inSnowLight Snow
3:51 PM10.9 °F3.9 °F73 %30.32 in1.0 miWest (260°)4.6 mph0.02 inSnowLight Snow
4:51 PM10.9 °F5.0 °F77 %30.32 in1.0 miWest (270°)3.5 mph0.02 inSnowLight Snow
5:51 PM12.0 °F6.1 °F77 %30.32 in1.0 miCalm0.03 inSnowLight Snow
6:51 PM12.0 °F6.1 °F77 %30.34 in1.5 miWSW (250°)3.5 mph0.03 inSnowLight Snow
7:08 PM12.0 °F6.1 °F77 %30.30 in1.2 miWNW (290°)3.5 mph0.01 inSnowLight Snow
7:17 PM12.0 °F5.0 °F73 %30.31 in1.5 miNW (310°)3.5 mph0.01 inSnowLight Snow
7:51 PM12.0 °F6.1 °F77 %30.37 in1.5 miWest (270°)3.5 mph0.03 inSnowLight Snow
8:51 PM12.0 °F5.0 °F73 %30.36 in3.0 miNorth (350°)6.9 mph0.03 inSnowLight Snow
9:00 PM10.9 °F5.0 °F77 %30.31 in4.0 miNNW (340°)6.9 mph0.01 inSnowLight Snow
9:39 PM10.9 °F5.0 °F77 %30.29 in5.0 miNorth (10°)9.2 mph0.02 inSnowLight Snow
9:51 PM10.9 °F3.9 °F73 %30.34 in6.0 miNorth (10°)9.2 mph0.03 inSnowLight Snow
10:17 PM10.9 °F3.9 °F73 %30.30 in3.0 miNNE (20°)8.1 mph0.01 inSnowLight Snow
10:25 PM10.9 °F3.9 °F73 %30.29 in1.8 miNNE (20°)10.4 mph0.02 inSnowLight Snow
10:45 PM10.4 °F3.2 °F73 %30.29 in1.2 miNorth (10°)9.2 mph0.05 inSnowLight Snow
10:51 PM10.0 °F3.9 °F76 %30.33 in1.0 miNorth (10°)8.1 mph0.05 inSnowLight Snow
11:51 PM10.0 °F3.9 °F76 %30.32 in1.8 miNorth (10°)10.4 mph0.05 inSnowLight Snow
11:56 PM10.0 °F3.9 °F76 %30.27 in3.0 miNorth (10°)11.5 mph0.00 inSnowLight Snow
Hourly data recorded from KORD, located miles away from Naperville, Illinois







STORIES FROM OUR PARTNERS